Location: Gazon
(48.1318°N, 1.2708°W)
Time: 22:32:01
(UTC+00:00)

MOS 1 Rocket - Pass Details

Date: 18 September 2020
Orbit: 614 x 831 km, 97.4° (Epoch: 25 October)

Event Time Altitude Azimuth Distance (km) Brightness Sun altitude
Rises 18:57:16 0° 16° (NNE) 3,034 6.6 -8.6°
Reaches altitude 10° 18:59:37 10° 22° (NNE) 2,084 5.7 -8.9°
Maximum altitude 19:04:01 50° 98° (E) 814 3.3 -9.7°
Drops below altitude 10° 19:08:13 10° 175° (S) 1,987 5.5 -10.3°
Sets 19:10:24 0° 180° (S) 2,877 6.3 -10.7°
